Location: Malmö
(55.6090°N, 13.0007°E)
Time: 00:28:17
(UTC+01:00)

ISS - Pass Details

Date: 28 January 2021
Orbit: 417 x 422 km, 51.6° (Epoch: 06 March)

Event Time Altitude Azimuth Distance (km) Brightness Sun altitude
Rises 17:11:33 0° 241° (WSW) 2,369 2.8 -5.4°
Reaches altitude 10° 17:13:45 10° 232° (SW) 1,507 0.7 -5.7°
Maximum altitude 17:16:51 34° 166° (SSE) 715 -2.5 -6.1°
Drops below altitude 10° 17:19:58 10° 99° (E) 1,512 -1.4 -6.5°
Enters shadow 17:20:45 - 95° (E) 1,814 -1.1 -6.6°
